Starlink 32865

operational
NORAD ID: 62952 Int'l Des: 2025-029 Owner: SPXS Country: US Constellation: starlink
LEOCIRCULAR

About Starlink 32865

Description loading...

Live Position

Loading 3D Globe...

Upcoming Passes

Altitude History

Altitude vs Time

uPlot chart will show altitude changes over time

Two-Line Element Set

1 62952U 25029E 25353.84444016 .00015320 00000-0 52824-3 0 9996
2 62952 53.1586 243.2796 0001480 103.8016 256.3149 15.30203752 49101
Epoch: Dec 19, 2025 • Age: 10 hours

Current Status

Altitude 480.4 km
Velocity 7.63 km/s
Sub-Earth Point 51.26°N, 130.47°E
Launch Date Feb 11, 2025
Age 0.8 years
Type internet

Technical Details

Classification Payload
Mass 730.00 kg
Dry Mass 700.00 kg
Total Mass 730.00 kg
Length 0.30 m
Diameter 4.10 m
Span 29.00 m
Shape Box + pan
Manufacturer SPXS
Bus Type Starlink V2M
Phase Status In Orbit
Owner/State SPXS/US

Large Constellations

Loading constellations...